| time (UTC) | temp F | wind direction | speed knots | gust knots | rain 1hr in | rain 24hr in | rain mn in | humidity % | barometer mb |
| 20260904184044 | 61 | 315 | 1.7 | 4.3 | 0.00 | 0.06 | 0.01 | 61 | 1015.8 |
| 20260904183544 | 61 | 314 | 0.9 | 4.3 | 0.00 | 0.06 | 0.01 | 63 | 1015.7 |
| 20260904183101 | 61 | 315 | 1.7 | 4.3 | 0.00 | 0.06 | 0.01 | 65 | 1015.7 |
| 20260904182544 | 61 | 332 | 1.7 | 4.3 | 0.00 | 0.06 | 0.01 | 67 | 1015.7 |
| 20260904182043 | 61 | 329 | 1.7 | 3.5 | 0.00 | 0.06 | 0.01 | 66 | 1015.7 |
| 20260904181557 | 60 | 323 | 1.7 | 3.5 | 0.00 | 0.06 | 0.01 | 69 | 1015.7 |
| 20260904181043 | 60 | 321 | 0.9 | 3.5 | 0.00 | 0.06 | 0.01 | 68 | 1015.7 |
| 20260904180546 | 60 | 294 | 0.9 | 2.6 | 0.00 | 0.06 | 0.01 | 69 | 1015.7 |
| 20260904180107 | 60 | 254 | 0.9 | 4.3 | 0.00 | 0.06 | 0.01 | 71 | 1015.7 |
| 20260904175543 | 60 | 238 | 1.7 | 4.3 | 0.00 | 0.06 | 0.01 | 70 | 1015.7 |
| 20260904175044 | 60 | 0 | 0.0 | 0.0 | 0.00 | 0.06 | 0.01 | 71 | 1015.6 |
| 20260904174607 | 59 | 0 | 0.0 | 0.9 | 0.00 | 0.06 | 0.01 | 70 | 1015.8 |
| 20260904174043 | 59 | 0 | 0.0 | 0.9 | 0.00 | 0.06 | 0.01 | 70 | 1015.7 |
| 20260904173545 | 59 | 0 | 0.0 | 0.9 | 0.00 | 0.06 | 0.01 | 70 | 1015.7 |
| 20260904173102 | 58 | 0 | 0.0 | 0.9 | 0.00 | 0.06 | 0.01 | 71 | 1015.6 |
| 20260904172545 | 58 | 0 | 0.0 | 0.0 | 0.00 | 0.06 | 0.01 | 72 | 1015.5 |
| 20260904172043 | 58 | 0 | 0.0 | 0.0 | 0.00 | 0.06 | 0.01 | 74 | 1015.4 |
| 20260904171603 | 58 | 0 | 0.0 | 1.7 | 0.00 | 0.06 | 0.01 | 75 | 1015.4 |
| 20260904171043 | 57 | 0 | 0.0 | 2.6 | 0.00 | 0.06 | 0.01 | 73 | 1015.4 |
| 20260904170543 | 57 | 311 | 0.9 | 2.6 | 0.00 | 0.06 | 0.01 | 73 | 1015.4 |
| 20260904170059 | 57 | 325 | 0.9 | 2.6 | 0.00 | 0.06 | 0.01 | 77 | 1015.4 |
| 20260904165543 | 57 | 325 | 0.0 | 2.6 | 0.00 | 0.06 | 0.01 | 78 | 1015.4 |
| 20260904165044 | 57 | 325 | 0.0 | 2.6 | 0.00 | 0.06 | 0.01 | 79 | 1015.2 |
| 20260904164556 | 57 | 325 | 0.0 | 2.6 | 0.00 | 0.06 | 0.01 | 78 | 1015.2 |
| 20260904164044 | 57 | 325 | 0.9 | 3.5 | 0.00 | 0.06 | 0.01 | 78 | 1015.1 |
| 20260904163544 | 57 | 325 | 0.9 | 3.5 | 0.00 | 0.06 | 0.01 | 79 | 1015.0 |
| 20260904163101 | 57 | 325 | 1.7 | 3.5 | 0.00 | 0.06 | 0.01 | 79 | 1015.0 |
| 20260904162544 | 57 | 325 | 0.9 | 3.5 | 0.00 | 0.06 | 0.01 | 78 | 1014.9 |
| 20260904162044 | 57 | 325 | 0.9 | 3.5 | 0.00 | 0.06 | 0.01 | 78 | 1014.9 |
| 20260904161617 | 57 | 325 | 1.7 | 3.5 | 0.00 | 0.06 | 0.01 | 76 | 1014.8 |
| 20260904161043 | 57 | 325 | 1.7 | 3.5 | 0.00 | 0.06 | 0.01 | 76 | 1014.7 |
| 20260904160544 | 57 | 325 | 1.7 | 3.5 | 0.00 | 0.06 | 0.01 | 71 | 1014.6 |
| 20260904160107 | 57 | 325 | 1.7 | 3.5 | 0.00 | 0.06 | 0.01 | 71 | 1014.5 |
| 20260904155544 | 57 | 325 | 0.9 | 3.5 | 0.00 | 0.06 | 0.01 | 69 | 1014.5 |
| 20260904155043 | 57 | 325 | 1.7 | 4.3 | 0.00 | 0.06 | 0.01 | 68 | 1014.4 |
| 20260904154605 | 56 | 325 | 1.7 | 4.3 | 0.00 | 0.06 | 0.01 | 68 | 1014.4 |
| 20260904154043 | 56 | 325 | 1.7 | 3.5 | 0.00 | 0.06 | 0.01 | 68 | 1014.4 |
| 20260904153543 | 56 | 328 | 1.7 | 4.3 | 0.00 | 0.06 | 0.01 | 69 | 1014.5 |
| 20260904153133 | 56 | 328 | 1.7 | 4.3 | 0.00 | 0.06 | 0.01 | 67 | 1014.4 |
| 20260904152543 | 56 | 321 | 1.7 | 3.5 | 0.00 | 0.06 | 0.01 | 68 | 1014.3 |
| 20260904152045 | 56 | 321 | 1.7 | 3.5 | 0.00 | 0.06 | 0.01 | 69 | 1014.2 |
| 20260904151557 | 56 | 321 | 1.7 | 4.3 | 0.00 | 0.06 | 0.01 | 68 | 1014.3 |
| 20260904151047 | 56 | 321 | 1.7 | 4.3 | 0.00 | 0.06 | 0.01 | 68 | 1014.3 |
| 20260904150543 | 56 | 321 | 1.7 | 4.3 | 0.00 | 0.06 | 0.01 | 69 | 1014.2 |
| 20260904150053 | 56 | 321 | 1.7 | 4.3 | 0.00 | 0.06 | 0.01 | 70 | 1014.1 |
| 20260904145547 | 56 | 321 | 1.7 | 3.5 | 0.00 | 0.06 | 0.01 | 70 | 1014.0 |
| 20260904145044 | 56 | 321 | 1.7 | 3.5 | 0.00 | 0.06 | 0.01 | 70 | 1014.0 |
| 20260904144603 | 56 | 321 | 1.7 | 3.5 | 0.00 | 0.06 | 0.01 | 70 | 1014.0 |
| 20260904144044 | 55 | 321 | 1.7 | 3.5 | 0.00 | 0.06 | 0.01 | 70 | 1014.0 |
| 20260904143544 | 55 | 321 | 1.7 | 3.5 | 0.00 | 0.06 | 0.01 | 73 | 1014.0 |
| 20260904143100 | 55 | 321 | 2.6 | 4.3 | 0.00 | 0.06 | 0.01 | 74 | 1013.9 |
| 20260904142546 | 55 | 313 | 2.6 | 4.3 | 0.00 | 0.06 | 0.01 | 74 | 1013.9 |
| 20260904142045 | 55 | 310 | 2.6 | 3.5 | 0.00 | 0.06 | 0.01 | 73 | 1013.8 |
| 20260904141557 | 55 | 311 | 1.7 | 3.5 | 0.00 | 0.06 | 0.01 | 73 | 1013.7 |
| 20260904141043 | 55 | 311 | 2.6 | 3.5 | 0.00 | 0.06 | 0.01 | 73 | 1013.7 |
| 20260904140544 | 55 | 316 | 2.6 | 3.5 | 0.00 | 0.06 | 0.01 | 73 | 1013.5 |
| 20260904140055 | 55 | 317 | 2.6 | 3.5 | 0.00 | 0.06 | 0.01 | 74 | 1013.6 |
| 20260904135544 | 55 | 317 | 1.7 | 2.6 | 0.00 | 0.06 | 0.01 | 74 | 1013.5 |
| 20260904135042 | 55 | 317 | 1.7 | 2.6 | 0.00 | 0.06 | 0.01 | 75 | 1013.5 |
| 20260904134553 | 55 | 317 | 1.7 | 3.5 | 0.00 | 0.06 | 0.01 | 74 | 1013.6 |
| 20260904134043 | 55 | 317 | 1.7 | 3.5 | 0.00 | 0.06 | 0.01 | 75 | 1013.5 |
| 20260904133543 | 54 | 317 | 1.7 | 3.5 | 0.00 | 0.06 | 0.01 | 75 | 1013.6 |
| 20260904133100 | 54 | 317 | 1.7 | 3.5 | 0.00 | 0.06 | 0.01 | 77 | 1013.5 |
| 20260904132544 | 54 | 317 | 2.6 | 4.3 | 0.00 | 0.06 | 0.01 | 79 | 1013.5 |
| 20260904132043 | 54 | 317 | 2.6 | 4.3 | 0.00 | 0.06 | 0.01 | 79 | 1013.5 |
| 20260904131619 | 54 | 317 | 2.6 | 5.2 | 0.00 | 0.06 | 0.01 | 80 | 1013.4 |
| 20260904131043 | 54 | 311 | 3.5 | 5.2 | 0.00 | 0.06 | 0.01 | 81 | 1013.4 |
| 20260904130543 | 53 | 306 | 3.5 | 4.3 | 0.00 | 0.06 | 0.01 | 82 | 1013.4 |
| 20260904130052 | 53 | 312 | 2.6 | 5.2 | 0.00 | 0.06 | 0.01 | 84 | 1013.3 |
| 20260904125543 | 52 | 313 | 2.6 | 6.1 | 0.01 | 0.06 | 0.01 | 87 | 1013.3 |
| 20260904125044 | 52 | 313 | 3.5 | 6.1 | 0.01 | 0.06 | 0.01 | 89 | 1013.3 |
| 20260904124555 | 52 | 321 | 3.5 | 6.1 | 0.01 | 0.06 | 0.01 | 91 | 1013.3 |
| 20260904124046 | 52 | 305 | 3.5 | 7.0 | 0.01 | 0.06 | 0.01 | 92 | 1013.3 |
| 20260904123543 | 52 | 319 | 3.5 | 7.8 | 0.01 | 0.06 | 0.01 | 93 | 1013.3 |
| 20260904123100 | 52 | 317 | 4.3 | 8.7 | 0.01 | 0.06 | 0.01 | 93 | 1013.4 |
| 20260904122543 | 52 | 312 | 5.2 | 8.7 | 0.01 | 0.06 | 0.01 | 94 | 1013.3 |
| 20260904122046 | 52 | 316 | 5.2 | 8.7 | 0.01 | 0.06 | 0.01 | 94 | 1013.4 |
| 20260904121600 | 52 | 317 | 5.2 | 7.8 | 0.01 | 0.06 | 0.01 | 94 | 1013.4 |
| 20260904121043 | 53 | 311 | 4.3 | 7.8 | 0.01 | 0.06 | 0.01 | 95 | 1013.3 |
| 20260904120543 | 53 | 317 | 3.5 | 7.0 | 0.01 | 0.06 | 0.01 | 95 | 1013.4 |
| 20260904115543 | 53 | 315 | 4.3 | 6.1 | 0.00 | 0.05 | 0.00 | 95 | 1013.4 |
| 20260904115043 | 53 | 318 | 3.5 | 6.1 | 0.00 | 0.05 | 0.00 | 95 | 1013.4 |
| 20260904114557 | 53 | 300 | 3.5 | 6.1 | 0.00 | 0.05 | 0.00 | 95 | 1013.4 |
| 20260904114043 | 53 | 313 | 3.5 | 6.1 | 0.00 | 0.05 | 0.00 | 95 | 1013.3 |
| 20260904113544 | 53 | 312 | 3.5 | 7.0 | 0.00 | 0.05 | 0.00 | 95 | 1013.1 |
| 20260904113057 | 53 | 313 | 3.5 | 7.0 | 0.00 | 0.05 | 0.00 | 95 | 1013.2 |
| 20260904112543 | 53 | 313 | 3.5 | 6.1 | 0.00 | 0.05 | 0.00 | 95 | 1013.1 |
| 20260904112045 | 53 | 311 | 3.5 | 6.1 | 0.00 | 0.05 | 0.00 | 95 | 1013.2 |
| 20260904111606 | 53 | 317 | 3.5 | 6.1 | 0.00 | 0.05 | 0.00 | 95 | 1013.2 |
| 20260904111046 | 53 | 315 | 3.5 | 6.1 | 0.00 | 0.05 | 0.00 | 95 | 1013.2 |
| 20260904110545 | 53 | 300 | 2.6 | 6.1 | 0.00 | 0.05 | 0.00 | 95 | 1013.2 |
| 20260904110104 | 53 | 312 | 2.6 | 5.2 | 0.00 | 0.05 | 0.00 | 95 | 1013.2 |
| 20260904105545 | 53 | 313 | 2.6 | 6.1 | 0.00 | 0.05 | 0.00 | 95 | 1013.3 |
| 20260904105046 | 53 | 313 | 3.5 | 6.1 | 0.00 | 0.05 | 0.00 | 95 | 1013.3 |
| 20260904104604 | 53 | 313 | 3.5 | 6.1 | 0.00 | 0.05 | 0.00 | 95 | 1013.2 |
| 20260904104051 | 53 | 315 | 2.6 | 7.0 | 0.00 | 0.05 | 0.00 | 95 | 1013.1 |
| 20260904103542 | 53 | 318 | 2.6 | 7.0 | 0.00 | 0.05 | 0.00 | 95 | 1013.1 |
| 20260904103105 | 54 | 306 | 3.5 | 6.1 | 0.00 | 0.05 | 0.00 | 95 | 1013.1 |
| 20260904102544 | 54 | 317 | 2.6 | 7.0 | 0.00 | 0.05 | 0.00 | 95 | 1013.0 |
| 20260904102045 | 54 | 319 | 3.5 | 7.8 | 0.00 | 0.05 | 0.00 | 95 | 1013.1 |
| 20260904101600 | 54 | 312 | 3.5 | 8.7 | 0.00 | 0.05 | 0.00 | 95 | 1013.0 |
| 20260904101043 | 54 | 331 | 2.6 | 8.7 | 0.00 | 0.05 | 0.00 | 95 | 1012.9 |
| 20260904100543 | 54 | 312 | 5.2 | 8.7 | 0.00 | 0.05 | 0.00 | 95 | 1013.0 |
| 20260904100218 | 54 | 316 | 4.3 | 7.8 | 0.00 | 0.05 | 0.00 | 95 | 1012.9 |
| 20260904095544 | 54 | 317 | 3.5 | 7.0 | 0.00 | 0.05 | 0.00 | 95 | 1012.9 |
| 20260904095044 | 54 | 313 | 3.5 | 6.1 | 0.00 | 0.05 | 0.00 | 95 | 1012.9 |
| 20260904094557 | 54 | 326 | 2.6 | 5.2 | 0.00 | 0.05 | 0.00 | 95 | 1012.9 |
| 20260904094043 | 54 | 317 | 1.7 | 7.0 | 0.00 | 0.05 | 0.00 | 95 | 1012.9 |
| 20260904093543 | 54 | 312 | 3.5 | 7.0 | 0.00 | 0.05 | 0.00 | 95 | 1012.8 |
| 20260904093104 | 54 | 321 | 2.6 | 5.2 | 0.00 | 0.05 | 0.00 | 95 | 1012.8 |
| 20260904092545 | 54 | 309 | 2.6 | 6.1 | 0.00 | 0.05 | 0.00 | 95 | 1012.8 |
| 20260904092048 | 54 | 320 | 2.6 | 7.0 | 0.00 | 0.05 | 0.00 | 95 | 1012.8 |
| 20260904091609 | 54 | 305 | 2.6 | 7.0 | 0.00 | 0.05 | 0.00 | 95 | 1012.8 |
| 20260904091045 | 54 | 321 | 3.5 | 7.0 | 0.00 | 0.05 | 0.00 | 95 | 1012.9 |
| 20260904090545 | 54 | 325 | 1.7 | 6.1 | 0.00 | 0.05 | 0.00 | 95 | 1012.8 |
| 20260904090057 | 54 | 296 | 3.5 | 7.0 | 0.00 | 0.05 | 0.00 | 95 | 1012.9 |
| 20260904085543 | 54 | 290 | 3.5 | 7.0 | 0.00 | 0.05 | 0.00 | 95 | 1012.9 |
| 20260904085046 | 54 | 321 | 3.5 | 7.0 | 0.00 | 0.05 | 0.00 | 95 | 1012.9 |
| 20260904084555 | 54 | 310 | 3.5 | 6.1 | 0.00 | 0.05 | 0.00 | 94 | 1012.9 |
| 20260904084042 | 54 | 312 | 3.5 | 6.1 | 0.00 | 0.05 | 0.00 | 95 | 1012.9 |
| 20260904083544 | 54 | 313 | 2.6 | 4.3 | 0.00 | 0.05 | 0.00 | 95 | 1012.9 |
| 20260904083111 | 54 | 314 | 1.7 | 4.3 | 0.00 | 0.05 | 0.00 | 95 | 1012.9 |
| 20260904082546 | 54 | 314 | 1.7 | 4.3 | 0.00 | 0.05 | 0.00 | 95 | 1012.9 |
| 20260904082048 | 54 | 314 | 2.6 | 4.3 | 0.00 | 0.05 | 0.00 | 95 | 1012.9 |
| 20260904081559 | 54 | 314 | 2.6 | 4.3 | 0.00 | 0.05 | 0.00 | 95 | 1012.8 |
| 20260904081043 | 54 | 315 | 0.0 | 1.7 | 0.00 | 0.05 | 0.00 | 95 | 1012.9 |
| 20260904080546 | 54 | 0 | 0.0 | 1.7 | 0.00 | 0.05 | 0.00 | 95 | 1012.9 |
| 20260904080053 | 54 | 0 | 0.0 | 2.6 | 0.00 | 0.05 | 0.00 | 95 | 1013.0 |
| 20260904075544 | 54 | 314 | 0.9 | 4.3 | 0.00 | 0.05 | 0.00 | 95 | 1013.1 |
| 20260904075048 | 54 | 315 | 0.9 | 7.0 | 0.00 | 0.05 | 0.00 | 95 | 1013.1 |
| 20260904074611 | 54 | 330 | 2.6 | 7.8 | 0.00 | 0.05 | 0.00 | 95 | 1013.0 |
| 20260904074044 | 54 | 310 | 3.5 | 8.7 | 0.00 | 0.05 | 0.00 | 94 | 1013.1 |
| 20260904073544 | 54 | 336 | 3.5 | 8.7 | 0.01 | 0.05 | 0.00 | 95 | 1013.1 |
| 20260904073102 | 54 | 315 | 4.3 | 8.7 | 0.01 | 0.05 | 0.00 | 94 | 1013.0 |
| 20260904072547 | 54 | 319 | 4.3 | 8.7 | 0.02 | 0.05 | 0.00 | 94 | 1013.1 |
| 20260904072043 | 54 | 283 | 4.3 | 10.4 | 0.03 | 0.05 | 0.00 | 94 | 1013.0 |
| 20260904071559 | 54 | 321 | 6.1 | 10.4 | 0.03 | 0.05 | 0.00 | 94 | 1013.0 |
| 20260904071043 | 54 | 307 | 5.2 | 9.6 | 0.03 | 0.05 | 0.00 | 94 | 1012.9 |
| 20260904070546 | 55 | 305 | 6.1 | 10.4 | 0.04 | 0.05 | 0.00 | 94 | 1013.0 |
| 20260904070126 | 55 | 311 | 6.1 | 10.4 | 0.04 | 0.05 | 0.00 | 94 | 1012.9 |
| 20260904065543 | 55 | 300 | 7.0 | 12.2 | 0.04 | 0.05 | 0.05 | 93 | 1012.9 |
| 20260904065046 | 56 | 310 | 7.0 | 12.2 | 0.04 | 0.05 | 0.05 | 93 | 1012.9 |
| 20260904064553 | 56 | 306 | 6.1 | 10.4 | 0.04 | 0.05 | 0.05 | 94 | 1012.8 |
| 20260904064043 | 57 | 296 | 5.2 | 10.4 | 0.04 | 0.05 | 0.05 | 93 | 1012.8 |
| 20260904063544 | 58 | 315 | 3.5 | 6.1 | 0.03 | 0.04 | 0.04 | 94 | 1012.9 |
| 20260904063105 | 58 | 311 | 1.7 | 4.3 | 0.03 | 0.04 | 0.04 | 94 | 1012.9 |
| 20260904062543 | 58 | 0 | 0.0 | 0.0 | 0.02 | 0.03 | 0.03 | 94 | 1013.0 |
| 20260904062043 | 58 | 0 | 0.0 | 4.3 | 0.01 | 0.02 | 0.02 | 94 | 1013.0 |
| 20260904061558 | 58 | 0 | 0.0 | 4.3 | 0.01 | 0.02 | 0.02 | 94 | 1012.9 |
| 20260904061044 | 58 | 158 | 0.9 | 5.2 | 0.01 | 0.02 | 0.02 | 94 | 1012.9 |
| 20260904060544 | 58 | 153 | 2.6 | 5.2 | 0.01 | 0.01 | 0.01 | 94 | 1012.9 |
| 20260904060100 | 58 | 149 | 2.6 | 5.2 | 0.01 | 0.01 | 0.01 | 94 | 1012.9 |
| 20260904055544 | 58 | 149 | 2.6 | 5.2 | 0.01 | 0.01 | 0.01 | 93 | 1012.9 |
| 20260904055045 | 58 | 149 | 2.6 | 5.2 | 0.01 | 0.01 | 0.01 | 93 | 1012.9 |
| 20260904054554 | 58 | 149 | 1.7 | 4.3 | 0.01 | 0.01 | 0.01 | 93 | 1012.9 |
| 20260904054044 | 58 | 149 | 1.7 | 4.3 | 0.01 | 0.01 | 0.01 | 93 | 1013.1 |
| 20260904053544 | 58 | 153 | 1.7 | 3.5 | 0.01 | 0.01 | 0.01 | 93 | 1013.1 |
| 20260904053101 | 58 | 153 | 0.9 | 2.6 | 0.01 | 0.01 | 0.01 | 93 | 1013.2 |
| 20260904052544 | 58 | 154 | 0.9 | 3.5 | 0.01 | 0.01 | 0.01 | 93 | 1013.3 |
| 20260904052044 | 58 | 154 | 0.9 | 3.5 | 0.01 | 0.01 | 0.01 | 93 | 1013.3 |
| 20260904051607 | 58 | 169 | 1.7 | 3.5 | 0.01 | 0.01 | 0.01 | 93 | 1013.2 |
| 20260904051043 | 59 | 130 | 0.9 | 3.5 | 0.01 | 0.01 | 0.01 | 92 | 1013.3 |
| 20260904050544 | 59 | 0 | 0.0 | 4.3 | 0.00 | 0.00 | 0.00 | 92 | 1013.4 |
| 20260904050057 | 59 | 0 | 0.0 | 4.3 | 0.00 | 0.00 | 0.00 | 92 | 1013.5 |
| 20260904045545 | 59 | 143 | 0.9 | 3.5 | 0.00 | 0.00 | 0.00 | 92 | 1013.5 |
| 20260904045045 | 59 | 137 | 0.9 | 4.3 | 0.00 | 0.00 | 0.00 | 92 | 1013.6 |
| 20260904044604 | 59 | 138 | 1.7 | 4.3 | 0.00 | 0.00 | 0.00 | 91 | 1013.6 |
| 20260904044043 | 59 | 121 | 1.7 | 4.3 | 0.00 | 0.00 | 0.00 | 91 | 1013.5 |
| 20260904043551 | 59 | 122 | 0.9 | 2.6 | 0.00 | 0.00 | 0.00 | 91 | 1013.5 |
| 20260904043102 | 59 | 129 | 0.0 | 1.7 | 0.00 | 0.00 | 0.00 | 91 | 1013.6 |
| 20260904042548 | 59 | 153 | 0.0 | 1.7 | 0.00 | 0.00 | 0.00 | 91 | 1013.6 |
| 20260904042044 | 59 | 0 | 0.0 | 1.7 | 0.00 | 0.00 | 0.00 | 91 | 1013.6 |
| 20260904041607 | 59 | 0 | 0.0 | 1.7 | 0.00 | 0.00 | 0.00 | 91 | 1013.5 |
| 20260904041044 | 59 | 0 | 0.0 | 1.7 | 0.00 | 0.00 | 0.00 | 90 | 1013.5 |
| 20260904040543 | 59 | 0 | 0.0 | 1.7 | 0.00 | 0.00 | 0.00 | 90 | 1013.4 |
| 20260904040110 | 59 | 0 | 0.0 | 2.6 | 0.00 | 0.00 | 0.00 | 90 | 1013.4 |
| 20260904035543 | 59 | 0 | 0.0 | 2.6 | 0.00 | 0.00 | 0.00 | 90 | 1013.3 |
| 20260904035044 | 59 | 136 | 0.0 | 2.6 | 0.00 | 0.00 | 0.00 | 90 | 1013.3 |
| 20260904034613 | 60 | 0 | 0.0 | 0.9 | 0.00 | 0.00 | 0.00 | 90 | 1013.4 |
| 20260904034045 | 60 | 0 | 0.0 | 0.9 | 0.00 | 0.00 | 0.00 | 89 | 1013.3 |
| 20260904033544 | 60 | 0 | 0.0 | 0.9 | 0.00 | 0.00 | 0.00 | 89 | 1013.3 |
| 20260904033104 | 60 | 0 | 0.0 | 0.9 | 0.00 | 0.00 | 0.00 | 89 | 1013.4 |
| 20260904032543 | 60 | 0 | 0.0 | 0.9 | 0.00 | 0.00 | 0.00 | 89 | 1013.3 |
| 20260904032043 | 60 | 0 | 0.0 | 0.9 | 0.00 | 0.00 | 0.00 | 89 | 1013.3 |
| 20260904031558 | 60 | 0 | 0.0 | 0.9 | 0.00 | 0.00 | 0.00 | 89 | 1013.2 |
| 20260904031044 | 60 | 0 | 0.0 | 0.9 | 0.00 | 0.00 | 0.00 | 89 | 1013.2 |
| 20260904030544 | 60 | 0 | 0.0 | 1.7 | 0.00 | 0.00 | 0.00 | 89 | 1013.3 |
| 20260904030056 | 60 | 0 | 0.0 | 2.6 | 0.00 | 0.00 | 0.00 | 89 | 1013.2 |
| 20260904025545 | 60 | 0 | 0.0 | 2.6 | 0.00 | 0.00 | 0.00 | 88 | 1013.2 |
| 20260904025049 | 60 | 252 | 0.0 | 1.7 | 0.00 | 0.00 | 0.00 | 88 | 1013.2 |
| 20260904024549 | 60 | 0 | 0.0 | 0.9 | 0.00 | 0.00 | 0.00 | 87 | 1013.3 |
| 20260904024048 | 60 | 0 | 0.0 | 0.9 | 0.00 | 0.00 | 0.00 | 87 | 1013.4 |
| 20260904023544 | 60 | 0 | 0.0 | 1.7 | 0.00 | 0.00 | 0.00 | 87 | 1013.4 |
| 20260904023100 | 61 | 0 | 0.0 | 1.7 | 0.00 | 0.00 | 0.00 | 86 | 1013.3 |
| 20260904022600 | 61 | 0 | 0.0 | 1.7 | 0.00 | 0.00 | 0.00 | 86 | 1013.4 |
| 20260904022045 | 61 | 0 | 0.0 | 1.7 | 0.00 | 0.00 | 0.00 | 86 | 1013.5 |
| 20260904021606 | 61 | 0 | 0.0 | 2.6 | 0.00 | 0.00 | 0.00 | 85 | 1013.5 |
| 20260904021044 | 61 | 0 | 0.0 | 2.6 | 0.00 | 0.00 | 0.00 | 85 | 1013.4 |
| 20260904020545 | 61 | 238 | 0.0 | 2.6 | 0.00 | 0.00 | 0.00 | 85 | 1013.4 |
| 20260904020057 | 61 | 207 | 0.0 | 2.6 | 0.00 | 0.00 | 0.00 | 84 | 1013.5 |
| 20260904015545 | 61 | 0 | 0.9 | 2.6 | 0.00 | 0.00 | 0.00 | 83 | 1013.5 |
| 20260904015045 | 62 | 0 | 0.0 | 2.6 | 0.00 | 0.00 | 0.00 | 83 | 1013.5 |
| 20260904014640 | 62 | 0 | 0.0 | 1.7 | 0.00 | 0.00 | 0.00 | 82 | 1013.5 |
| 20260904014045 | 62 | 0 | 0.0 | 2.6 | 0.00 | 0.00 | 0.00 | 81 | 1013.7 |
| 20260904013545 | 62 | 0 | 0.0 | 3.5 | 0.00 | 0.00 | 0.00 | 81 | 1013.7 |
| 20260904013059 | 62 | 0 | 1.7 | 3.5 | 0.00 | 0.00 | 0.00 | 80 | 1013.7 |
| 20260904012545 | 63 | 229 | 0.9 | 2.6 | 0.00 | 0.00 | 0.00 | 80 | 1013.7 |
| 20260904012045 | 63 | 0 | 0.9 | 3.5 | 0.00 | 0.00 | 0.00 | 79 | 1013.8 |
| 20260904011619 | 63 | 0 | 0.9 | 3.5 | 0.00 | 0.00 | 0.00 | 79 | 1013.7 |
| 20260904011046 | 63 | 250 | 0.9 | 2.6 | 0.00 | 0.00 | 0.00 | 79 | 1013.7 |
| 20260904010544 | 63 | 250 | 0.0 | 1.7 | 0.00 | 0.00 | 0.00 | 78 | 1013.7 |
| 20260904010103 | 64 | 0 | 0.0 | 2.6 | 0.00 | 0.00 | 0.00 | 77 | 1013.8 |
| 20260904005548 | 64 | 321 | 0.9 | 3.5 | 0.00 | 0.00 | 0.00 | 76 | 1013.8 |
| 20260904005044 | 64 | 321 | 0.9 | 3.5 | 0.00 | 0.00 | 0.00 | 76 | 1013.8 |
| 20260904004605 | 65 | 311 | 0.0 | 2.6 | 0.00 | 0.00 | 0.00 | 75 | 1013.8 |
| 20260904004045 | 65 | 311 | 0.0 | 4.3 | 0.00 | 0.00 | 0.00 | 74 | 1013.7 |
| 20260904003543 | 65 | 247 | 0.9 | 4.3 | 0.00 | 0.00 | 0.00 | 74 | 1013.8 |
| 20260904003104 | 65 | 0 | 0.9 | 2.6 | 0.00 | 0.00 | 0.00 | 74 | 1013.7 |
| 20260904002545 | 65 | 275 | 0.0 | 3.5 | 0.00 | 0.00 | 0.00 | 73 | 1013.8 |
| 20260904002047 | 66 | 0 | 1.7 | 3.5 | 0.00 | 0.00 | 0.00 | 72 | 1013.8 |
| 20260904001559 | 66 | 290 | 0.9 | 3.5 | 0.00 | 0.00 | 0.00 | 72 | 1013.8 |
| 20260904001044 | 66 | 282 | 1.7 | 3.5 | 0.00 | 0.00 | 0.00 | 71 | 1013.7 |
| 20260904000546 | 67 | 234 | 0.9 | 3.5 | 0.00 | 0.00 | 0.00 | 70 | 1013.7 |
| 20260904000058 | 67 | 242 | 0.9 | 2.6 | 0.00 | 0.00 | 0.00 | 71 | 1013.9 |
| 20260903235544 | 67 | 282 | 0.9 | 3.5 | 0.00 | 0.00 | 0.00 | 70 | 1013.9 |
| 20260903235045 | 67 | 282 | 0.9 | 3.5 | 0.00 | 0.00 | 0.00 | 69 | 1013.9 |
| 20260903234604 | 68 | 342 | 0.9 | 2.6 | 0.00 | 0.00 | 0.00 | 69 | 1013.9 |
| 20260903234045 | 68 | 0 | 0.9 | 5.2 | 0.00 | 0.00 | 0.00 | 68 | 1013.9 |
| 20260903233545 | 69 | 349 | 0.9 | 5.2 | 0.00 | 0.00 | 0.00 | 68 | 1014.0 |
| 20260903233113 | 69 | 232 | 1.7 | 3.5 | 0.00 | 0.00 | 0.00 | 67 | 1013.9 |
| 20260903232544 | 69 | 297 | 1.7 | 6.1 | 0.00 | 0.00 | 0.00 | 67 | 1014.0 |
| 20260903232045 | 70 | 254 | 1.7 | 6.1 | 0.00 | 0.00 | 0.00 | 65 | 1014.0 |
| 20260903231557 | 70 | 220 | 0.9 | 3.5 | 0.00 | 0.00 | 0.00 | 64 | 1014.1 |
| 20260903231044 | 70 | 253 | 0.9 | 2.6 | 0.00 | 0.00 | 0.00 | 64 | 1014.2 |
| 20260903230544 | 70 | 180 | 0.9 | 3.5 | 0.00 | 0.00 | 0.00 | 64 | 1014.1 |
| 20260903230057 | 71 | 98 | 0.9 | 3.5 | 0.00 | 0.00 | 0.00 | 63 | 1014.2 |
| 20260903225544 | 71 | 290 | 1.7 | 6.1 | 0.00 | 0.00 | 0.00 | 64 | 1014.1 |
| 20260903225044 | 71 | 223 | 0.9 | 6.1 | 0.00 | 0.00 | 0.00 | 64 | 1014.2 |
| 20260903224602 | 71 | 255 | 0.9 | 3.5 | 0.00 | 0.00 | 0.00 | 65 | 1014.3 |
| 20260903224047 | 71 | 300 | 0.9 | 3.5 | 0.00 | 0.00 | 0.00 | 65 | 1014.4 |
| 20260903223544 | 71 | 312 | 1.7 | 6.1 | 0.00 | 0.00 | 0.00 | 64 | 1014.3 |
| 20260903223114 | 72 | 232 | 0.9 | 7.8 | 0.00 | 0.00 | 0.00 | 62 | 1014.4 |
| 20260903222543 | 72 | 281 | 0.0 | 7.8 | 0.00 | 0.00 | 0.00 | 63 | 1014.4 |
| 20260903222045 | 72 | 311 | 1.7 | 3.5 | 0.00 | 0.00 | 0.00 | 62 | 1014.4 |
| 20260903221556 | 72 | 185 | 0.9 | 3.5 | 0.00 | 0.00 | 0.00 | 61 | 1014.5 |
| 20260903221044 | 72 | 0 | 0.9 | 3.5 | 0.00 | 0.00 | 0.00 | 62 | 1014.6 |
| 20260903220544 | 72 | 209 | 0.9 | 3.5 | 0.00 | 0.00 | 0.00 | 62 | 1014.6 |
| 20260903220117 | 72 | 0 | 0.0 | 3.5 | 0.00 | 0.00 | 0.00 | 64 | 1014.7 |
| 20260903215545 | 72 | 240 | 0.9 | 3.5 | 0.00 | 0.00 | 0.00 | 62 | 1014.7 |
| 20260903215044 | 72 | 133 | 0.0 | 7.8 | 0.00 | 0.00 | 0.00 | 63 | 1014.9 |
| 20260903214553 | 71 | 210 | 0.9 | 7.8 | 0.00 | 0.00 | 0.00 | 64 | 1014.9 |
| 20260903214044 | 72 | 222 | 1.7 | 6.1 | 0.00 | 0.00 | 0.00 | 63 | 1015.0 |
| 20260903213544 | 71 | 93 | 0.9 | 4.3 | 0.00 | 0.00 | 0.00 | 65 | 1014.8 |
| 20260903213100 | 70 | 281 | 0.9 | 4.3 | 0.00 | 0.00 | 0.00 | 66 | 1014.9 |
| 20260903212548 | 70 | 279 | 0.9 | 4.3 | 0.00 | 0.00 | 0.00 | 66 | 1015.0 |
| 20260903212045 | 70 | 325 | 0.9 | 2.6 | 0.00 | 0.00 | 0.00 | 67 | 1015.0 |
| 20260903211557 | 69 | 336 | 0.9 | 4.3 | 0.00 | 0.00 | 0.00 | 67 | 1015.0 |
| 20260903211044 | 69 | 277 | 0.9 | 6.1 | 0.00 | 0.00 | 0.00 | 67 | 1015.0 |
| 20260903210544 | 69 | 229 | 2.6 | 6.1 | 0.00 | 0.00 | 0.00 | 68 | 1015.0 |
| 20260903210058 | 69 | 0 | 1.7 | 4.3 | 0.00 | 0.00 | 0.00 | 68 | 1015.0 |
| 20260903205547 | 69 | 298 | 0.9 | 3.5 | 0.00 | 0.00 | 0.00 | 67 | 1015.0 |
| 20260903205044 | 69 | 248 | 0.9 | 3.5 | 0.00 | 0.00 | 0.00 | 69 | 1015.1 |
| 20260903204553 | 68 | 256 | 0.9 | 3.5 | 0.00 | 0.00 | 0.00 | 69 | 1015.1 |
| 20260903204044 | 68 | 298 | 1.7 | 4.3 | 0.00 | 0.00 | 0.00 | 69 | 1015.0 |
| 20260903203544 | 68 | 212 | 1.7 | 4.3 | 0.00 | 0.00 | 0.00 | 69 | 1015.0 |
| 20260903203108 | 68 | 303 | 1.7 | 4.3 | 0.00 | 0.00 | 0.00 | 69 | 1015.0 |
| 20260903202544 | 69 | 292 | 1.7 | 3.5 | 0.00 | 0.00 | 0.00 | 68 | 1015.0 |
| 20260903202044 | 68 | 201 | 0.9 | 3.5 | 0.00 | 0.00 | 0.00 | 69 | 1015.1 |
| 20260903201556 | 68 | 0 | 0.9 | 3.5 | 0.00 | 0.00 | 0.00 | 69 | 1015.1 |
| 20260903201045 | 68 | 311 | 1.7 | 3.5 | 0.00 | 0.00 | 0.00 | 68 | 1015.2 |
| 20260903200544 | 68 | 0 | 0.9 | 3.5 | 0.00 | 0.00 | 0.00 | 70 | 1015.2 |
| 20260903200111 | 68 | 247 | 1.7 | 4.3 | 0.00 | 0.00 | 0.00 | 69 | 1015.2 |
| 20260903195543 | 68 | 197 | 0.9 | 4.3 | 0.00 | 0.00 | 0.00 | 70 | 1015.2 |
| 20260903195044 | 67 | 305 | 0.9 | 4.3 | 0.00 | 0.00 | 0.00 | 72 | 1015.2 |
| 20260903194559 | 67 | 293 | 1.7 | 4.3 | 0.00 | 0.00 | 0.00 | 71 | 1015.4 |
| 20260903194045 | 67 | 271 | 0.9 | 3.5 | 0.00 | 0.00 | 0.00 | 72 | 1015.4 |
| 20260903193544 | 67 | 221 | 0.0 | 4.3 | 0.00 | 0.00 | 0.00 | 71 | 1015.4 |
| 20260903193054 | 67 | 290 | 0.9 | 4.3 | 0.00 | 0.00 | 0.00 | 70 | 1015.4 |
| 20260903192545 | 67 | 302 | 1.7 | 3.5 | 0.00 | 0.00 | 0.00 | 70 | 1015.6 |
| 20260903192043 | 67 | 161 | 0.9 | 3.5 | 0.00 | 0.00 | 0.00 | 70 | 1015.6 |
| 20260903191602 | 66 | 0 | 0.0 | 2.6 | 0.00 | 0.00 | 0.00 | 73 | 1015.7 |
| 20260903191044 | 66 | 0 | 0.0 | 2.6 | 0.00 | 0.00 | 0.00 | 73 | 1015.9 |
| 20260903190546 | 65 | 329 | 0.0 | 2.6 | 0.00 | 0.00 | 0.00 | 73 | 1015.9 |
| 20260903190057 | 65 | 0 | 0.0 | 2.6 | 0.00 | 0.00 | 0.00 | 74 | 1016.0 |
| 20260903185544 | 65 | 0 | 0.0 | 2.6 | 0.00 | 0.00 | 0.00 | 74 | 1016.0 |
| 20260903185044 | 65 | 0 | 0.0 | 2.6 | 0.00 | 0.00 | 0.00 | 74 | 1016.0 |
| 20260903184555 | 65 | 329 | 0.9 | 3.5 | 0.00 | 0.00 | 0.00 | 73 | 1016.1 |